Find Starlink 30904

NORAD ID: 58364 Int'l Des: 2023-177 Owner: SPXS Country: US Constellation: starlink operational
LEOCIRCULAR

Live Position

Loading 3D Globe...

About Starlink 30904

Description loading...

Upcoming Passes

Passes for default location (London). Set your location on the main map for personalized predictions.

Altitude History

Loading altitude history...

Two-Line Element Set

1 58364U 23177P 26127.74433426 .00017100 00000-0 11113-2 0 9995
2 58364 43.0014 26.9142 0006887 207.8311 152.2165 15.07738199137143
Epoch: May 7, 2026 • Age: 6 hours

Current Status

Altitude 551.3 km
Velocity 7.59 km/s
Sub-Earth Point -25.95°S, 127.68°E
Launch Date Nov 18, 2023
Age 2.4 years
Type internet

Technical Details

Classification Payload
Mass 730.00 kg
Dry Mass 700.00 kg
Total Mass 730.00 kg
Length 0.30 m
Diameter 4.10 m
Span 29.00 m
Shape Box + pan
Manufacturer SPXS
Bus Type Starlink V2M
Phase Status In Orbit
Owner/State SPXS/US

Most Searched